Location: El Gallo
(32.4380°N, 116.9347°W)
Time: 19:46:30
(UTC+00:00)

Cosmos 2346 Rocket - Pass Details

Date: 01 October 2022
Orbit: 937 x 979 km, 82.9° (Epoch: 01 December)

Event Time Altitude Azimuth Distance (km) Brightness Sun altitude
Rises 11:57:35 0° 354° (N) 3,607 7.5 -22.7°
Reaches altitude 10° 12:00:04 10° 355° (N) 2,663 6.8 -22.2°
Maximum altitude 12:06:10 86° 83° (E) 954 4.4 -20.9°
Drops below altitude 10° 12:12:17 10° 174° (S) 2,674 6.8 -19.7°
Sets 12:14:47 0° 175° (S) 3,623 7.5 -19.2°
